Location: La Pernelle
(49.6188°N, 1.2999°W)
Time: 09:33:13
(UTC+00:00)

Meteor 2-20 - Pass Details

Date: 31 October 2021
Orbit: 939 x 958 km, 82.5° (Epoch: 08 December)

Event Time Altitude Azimuth Distance (km) Brightness Sun altitude
Rises 02:45:08 0° 121° (ESE) 3,605 7.8 -39.6°
Reaches altitude 10° 02:50:14 10° 84° (E) 2,664 7.4 -38.9°
Maximum altitude 02:51:16 10° 74° (ENE) 2,631 7.4 -38.7°
Drops below altitude 10° 02:52:19 10° 64° (ENE) 2,665 7.5 -38.6°
Sets 02:57:25 0° 27° (NNE) 3,615 8.1 -37.8°
